Вернуться в каталог

KUIPER-00111

АктивенСвязьLEO
NORAD 65149·PAYLOAD·🇺🇸 United States

Запущен Aug 11, 2025 с Cape Canaveral Space Force Station

Loading…

Ближайшие Пролёты (ближайшие 24 часа)

TLE

СвежийSource: CelesTrak SupGP

Эпоха: Sep 14, 2026, 20:03 UTC

1 65149C 25171T   26257.83609954  .00005289  00000+0  69254-3 0  2576
2 65149  51.8970  56.5893 0000647 120.3789   6.6331 14.79917441    17

Отслеживайте KUIPER-00111 в реальном времени с AllMySat

Download on the App Store